User: anonymous   Login
Location: Tel Aviv
(32.0670°N, 34.7670°E)
Time: 05:37:12
(UTC+02:00)
Language:

Transit 2A - Orbit

View from above orbital plane
View from above orbital plane
View from above satellite
View from above satellite

Ground track
Ground track

The orbit data is extracted from the following two-line orbital elements,

1 00045U 60007A   22022.46544512  .00000009  00000-0  29124-4 0  9992
2 00045  66.6946 281.7812 0262092 251.0575 106.1954 14.33770027149557
Epoch (UTC): 22 January 2022 11:10:14
Eccentricity: 0.0262092
inclination: 66.6946°
perigee height: 591 km
apogee height: 967 km
right ascension of ascending node: 281.7812°
argument of perigee: 251.0575°
revolutions per day: 14.33770027
mean anomaly at epoch: 106.1954°
orbit number at epoch: 14955

The dashed part of the orbit path shows where the satellite is in the earth's shadow,  

DLR